Henderson, NV

12:50 AM PDT on May 23, 2017 (GMT -0700)
Henderson

Weather History for KHND - October, 2012

Change the Weather History Date:

Wednesday, October 31, 2012

  Actual Average (KLAS) Record (KLAS)
Temperature  
Mean Temperature 64 °F -  
Max Temperature 79 °F 71 °F 86 °F (1988)
Min Temperature 50 °F 47 °F 30 °F (1971)
Growing Degree Days 14 (Base 50)    
Moisture  
Dew Point 29 °F    
Average Humidity 28    
Maximum Humidity 43    
Minimum Humidity 15    
Precipitation  
Precipitation 0.00 in - - ()
Sea Level Pressure  
Sea Level Pressure 29.93 in    
Wind  
Wind Speed 6 mph (SSE)    
Max Wind Speed 12 mph    
Max Gust Speed -    
Visibility 10 miles    
Events      
Averages and records for this station are not official NWS values.
T = Trace of Precipitation, MM = Missing Value Source: NWS Daily Summary

Daily Weather History Graph

Daily Weather History Graph

Search for Another Location

Airport or City:

Trip Planner

Search our weather history database for the weather conditions in past years. The results will help you decide how hot, cold, wet, or windy it might be!

Date:

Astronomy

Oct. 31, 2012 Rise Set
Actual Time 7:02 AM PDT 5:45 PM PDT
Civil Twilight 6:36 AM PDT 6:11 PM PDT
Nautical Twilight 6:05 AM PDT 6:41 PM PDT
Astronomical Twilight 5:35 AM PDT 7:11 PM PDT
Moon 7:03 PM PDT (10/31) 8:43 AM PDT (10/31)
Length of Visible Light 11h 35m
Length of Day
10h 42m
Waning Gibbous, 97% of the Moon is Illuminated
Oct 31
Waning Gibbous
Nov 6
Last Quarter
Nov 13
New
Nov 20
First Quarter
Nov 28
Full

Hourly Weather History & Observations

Time (PDT) Temp. Dew Point Humidity Pressure Visibility Wind Dir Wind Speed Gust Speed Precip Events Conditions
12:56 AM 54.9 °F 29.1 °F 37% 29.97 in 10.0 mi South 5.8 mph - N/A   Clear
1:56 AM 55.9 °F 28.0 °F 34% 29.96 in 10.0 mi South 8.1 mph - N/A   Clear
2:56 AM 52.9 °F 29.1 °F 40% 29.96 in 10.0 mi SSE 9.2 mph - N/A   Clear
3:56 AM 54.9 °F 27.1 °F 34% 29.94 in 10.0 mi South 11.5 mph - N/A   Clear
4:56 AM 52.9 °F 27.1 °F 37% 29.94 in 10.0 mi South 9.2 mph - N/A   Clear
5:56 AM 52.0 °F 28.0 °F 40% 29.96 in 10.0 mi SSW 4.6 mph - N/A   Clear
6:56 AM 50.9 °F 29.1 °F 43% 29.99 in 10.0 mi South 6.9 mph - N/A   Clear
7:56 AM 54.0 °F 30.0 °F 40% 30.01 in 10.0 mi SSE 8.1 mph - N/A   Clear
8:56 AM 61.9 °F 31.1 °F 31% 30.01 in 10.0 mi Calm Calm - N/A   Clear
9:56 AM 68.0 °F 28.0 °F 22% 30.01 in 10.0 mi Calm Calm - N/A   Clear
10:56 AM 72.9 °F 28.0 °F 19% 30.00 in 10.0 mi Calm Calm - N/A   Clear
11:56 AM 74.8 °F 27.1 °F 17% 29.97 in 10.0 mi Calm Calm - N/A   Clear
12:56 PM 77.0 °F 28.0 °F 17% 29.94 in 10.0 mi NNE 5.8 mph - N/A   Clear
1:56 PM 77.9 °F 28.0 °F 16% 29.90 in 10.0 mi NE 4.6 mph - N/A   Clear
2:56 PM 79.9 °F 28.0 °F 15% 29.88 in 10.0 mi NNE 3.5 mph - N/A   Clear
3:56 PM 79.9 °F 30.0 °F 16% 29.87 in 10.0 mi NNE 6.9 mph - N/A   Clear
4:56 PM 77.9 °F 29.1 °F 17% 29.86 in 10.0 mi Calm Calm - N/A   Clear
5:56 PM 72.0 °F 29.1 °F 20% 29.88 in 10.0 mi Calm Calm - N/A   Clear
6:56 PM 65.8 °F 32.0 °F 28% 29.89 in 10.0 mi SSE 4.6 mph - N/A   Clear
7:56 PM 61.9 °F 30.0 °F 30% 29.89 in 10.0 mi Calm Calm - N/A   Clear
8:56 PM 61.0 °F 30.0 °F 31% 29.88 in 10.0 mi Calm Calm - N/A   Clear
9:56 PM 59.9 °F 30.0 °F 32% 29.88 in 10.0 mi South 9.2 mph - N/A   Clear
10:56 PM 61.0 °F 27.1 °F 28% 29.87 in 10.0 mi SSW 8.1 mph - N/A   Clear
11:56 PM 59.0 °F 26.1 °F 28% 29.87 in 10.0 mi SSE 9.2 mph - N/A   Clear